GW1115 Weather Reports


Display with metric or nautical units.
time (UTC)temp
F
wind
direction
speed
MPH
gust
MPH
rain 1hr
in
rain 24hr
in
rain mn
in
humidity
%
barometer
mb
20260507221503 56 269 5.0 12.0 0.00 0.03 0.01 53 1012.5
20260507220036 57 233 6.0 15.0 0.00 0.03 0.01 50 1012.3
20260507214519 58 296 6.0 12.0 0.00 0.03 0.01 50 1012.0
20260507213059 57 281 2.0 14.0 0.00 0.03 0.01 53 1012.0
20260507211549 59 180 6.0 10.0 0.00 0.03 0.01 51 1012.0
20260507210015 57 201 3.0 17.0 0.00 0.03 0.01 56 1011.9
20260507204553 57 279 5.0 10.0 0.00 0.03 0.01 54 1011.8
20260507203027 57 310 4.0 13.0 0.00 0.03 0.01 57 1012.0
20260507201524 58 288 5.0 13.0 0.00 0.03 0.01 56 1012.1
20260507200046 57 220 4.0 12.0 0.00 0.03 0.01 53 1012.3
20260507194527 56 251 8.0 13.0 0.00 0.03 0.01 55 1012.5
20260507193054 57 244 3.0 9.0 0.00 0.03 0.01 55 1012.6
20260507191537 58 232 5.0 15.0 0.00 0.03 0.01 56 1012.7
20260507190015 58 240 5.0 13.0 0.00 0.03 0.01 59 1012.6
20260507184546 58 203 8.0 11.0 0.00 0.03 0.01 55 1012.7
20260507183021 57 256 8.0 12.0 0.00 0.03 0.01 54 1012.7
20260507181559 58 234 3.0 12.0 0.00 0.03 0.01 59 1012.8
20260507180046 57 9 8.0 15.0 0.00 0.04 0.01 53 1012.9
20260507174523 57 195 8.0 11.0 0.00 0.04 0.01 59 1013.0
20260507173055 56 274 6.0 12.0 0.00 0.04 0.01 55 1013.2
20260507171520 56 279 10.0 17.0 0.00 0.04 0.01 60 1013.5
20260507170051 56 284 3.0 13.0 0.00 0.05 0.01 59 1013.7
20260507164526 56 263 5.0 8.0 0.00 0.05 0.01 61 1013.7
20260507163058 56 203 4.0 11.0 0.00 0.05 0.01 61 1014.0
20260507161550 56 275 2.0 8.0 0.00 0.05 0.01 59 1014.1
20260507160017 55 197 5.0 11.0 0.00 0.08 0.01 65 1014.2
20260507154556 54 213 5.0 14.0 0.00 0.08 0.01 61 1014.2
20260507153028 54 217 5.0 11.0 0.00 0.08 0.01 62 1014.2
20260507151516 54 258 3.0 8.0 0.00 0.08 0.01 60 1014.3
20260507150048 54 194 3.0 9.0 0.00 0.08 0.01 67 1014.5
20260507144530 55 244 1.0 6.0 0.00 0.08 0.01 67 1014.7
20260507143108 53 308 4.0 8.0 0.00 0.08 0.01 59 1014.8
20260507143002 53 292 4.0 8.0 0.00 0.08 0.01 59 1014.8
20260507141542 52 254 4.0 8.0 0.00 0.08 0.01 69 1015.1
20260507140016 53 199 4.0 10.0 0.00 0.08 0.01 70 1015.4
20260507134550 53 153 2.0 7.0 0.00 0.08 0.01 69 1015.5
20260507133022 52 193 0.0 5.0 0.00 0.08 0.01 69 1015.7
20260507131556 52 161 2.0 5.0 0.00 0.08 0.01 76 1015.6
20260507130033 51 150 3.0 5.0 0.00 0.14 0.01 75 1015.7
20260507124508 48 324 0.0 2.0 0.00 0.14 0.01 74 1015.8
20260507123044 47 324 0.0 2.0 0.00 0.14 0.01 77 1016.0
20260507121524 46 325 0.0 1.0 0.00 0.14 0.01 88 1015.8
20260507120050 45 325 0.0 1.0 0.00 0.19 0.01 96 1015.6
20260507114530 44 325 0.0 1.0 0.00 0.19 0.01 96 1015.5
20260507113058 44 325 0.0 1.0 0.00 0.19 0.01 97 1015.3
20260507111538 42 325 0.0 0.0 0.00 0.19 0.01 96 1015.2
20260507110018 43 325 0.0 1.0 0.00 0.32 0.01 97 1015.0
20260507104602 43 325 0.0 2.0 0.00 0.32 0.01 96 1014.8
20260507103029 44 325 0.0 0.0 0.00 0.32 0.01 97 1014.7
20260507101511 44 325 0.0 0.0 0.00 0.32 0.01 97 1014.6
20260507100057 44 325 0.0 2.0 0.00 0.47 0.01 97 1014.5
20260507094525 44 325 0.0 1.0 0.00 0.47 0.01 97 1014.5
20260507093052 45 325 1.0 2.0 0.00 0.47 0.01 97 1014.3
20260507091542 45 325 0.0 3.0 0.00 0.47 0.01 97 1014.3
20260507090007 45 325 1.0 3.0 0.00 0.51 0.01 97 1014.2
20260507084546 45 325 0.0 1.0 0.00 0.51 0.01 97 1014.3
20260507083020 45 325 0.0 0.0 0.00 0.51 0.01 97 1014.2
20260507081600 45 325 0.0 1.0 0.00 0.51 0.01 97 1014.2
20260507081509 45 325 0.0 1.0 0.00 0.51 0.01 97 1014.2
20260507080040 45 325 0.0 0.0 0.00 0.51 0.01 97 1014.2
20260507074518 46 325 0.0 1.0 0.00 0.51 0.01 97 1014.1
20260507073050 45 325 0.0 1.0 0.00 0.51 0.01 97 1014.2
20260507071529 45 325 0.0 1.0 0.00 0.51 0.01 97 1014.2
20260507070106 45 325 0.0 1.0 0.00 0.51 0.01 97 1014.0
20260507064548 46 325 1.0 3.0 0.01 0.51 0.01 97 1013.9
20260507063009 46 325 1.0 2.0 0.01 0.51 0.01 96 1014.0
20260507061554 46 325 2.0 4.0 0.01 0.51 0.01 97 1014.0
20260507060023 47 309 2.0 10.0 0.01 0.51 0.01 97 1014.0
20260507054612 48 72 1.0 3.0 0.00 0.50 0.00 98 1014.2
20260507053034 48 72 1.0 3.0 0.00 0.50 0.00 98 1014.3
20260507051518 48 67 1.0 3.0 0.00 0.50 0.00 98 1014.5
20260507050049 48 66 0.0 0.0 0.00 0.50 0.00 98 1014.4
20260507044525 48 66 0.0 0.0 0.00 0.50 0.00 97 1014.5
20260507043053 48 66 0.0 0.0 0.00 0.50 0.00 97 1014.3
20260507041535 48 66 0.0 1.0 0.00 0.50 0.00 97 1014.4
20260507040011 48 66 0.0 1.0 0.00 0.50 0.50 97 1014.1
20260507034548 48 66 0.0 0.0 0.00 0.50 0.50 97 1014.3
20260507033024 48 66 0.0 2.0 0.01 0.50 0.50 97 1014.1
20260507031601 48 66 1.0 3.0 0.01 0.50 0.50 97 1014.6
20260507030036 48 65 2.0 3.0 0.01 0.50 0.50 97 1014.5
20260507024518 48 65 0.0 2.0 0.01 0.50 0.50 97 1014.0
20260507023047 48 65 0.0 3.0 0.00 0.49 0.49 97 1013.9
20260507021537 48 41 0.0 2.0 0.00 0.49 0.49 97 1014.0
20260507020008 48 39 0.0 1.0 0.00 0.49 0.49 97 1013.8
20260507014606 48 39 0.0 1.0 0.00 0.49 0.49 97 1013.5
20260507013022 48 39 0.0 2.0 0.00 0.49 0.49 97 1013.4
20260507011602 48 39 0.0 1.0 0.00 0.49 0.49 96 1013.6
20260507011502 48 39 0.0 1.0 0.00 0.49 0.49 96 1013.5
20260507010041 48 39 0.0 5.0 0.01 0.49 0.49 96 1013.1
20260507004517 48 21 2.0 5.0 0.01 0.49 0.49 96 1013.1
20260507003041 49 313 1.0 5.0 0.01 0.49 0.49 96 1013.1
20260507001533 49 321 2.0 6.0 0.01 0.49 0.49 95 1012.9
20260507000111 50 266 1.0 3.0 0.00 0.48 0.48 96 1013.5
20260506234536 50 265 2.0 4.0 0.00 0.48 0.48 95 1013.2
20260506233004 50 267 1.0 6.0 0.00 0.48 0.48 95 1013.0
20260506231547 50 273 1.0 3.0 0.00 0.48 0.48 95 1013.0
20260506230019 50 266 2.0 4.0 0.00 0.48 0.48 95 1013.2
20260506224553 50 266 1.0 3.0 0.00 0.48 0.48 96 1012.6
20260506223029 50 267 1.0 4.0 0.00 0.48 0.48 96 1012.5